Location: LDNL
(36.4545°S, 141.6685°E)
Time: 11:24:40
(UTC+10:00)

Explorer 7 - Pass Details

Date: 17 August 2022
Orbit: 482 x 668 km, 50.3° (Epoch: 26 September)

Event Time Altitude Azimuth Distance (km) Brightness Sun altitude
Rises 17:49:03 0° 277° (W) 3,017 12.9 1.5°
Reaches altitude 10° 17:51:41 10° 266° (W) 2,108 11.3 1.0°
Maximum altitude 17:55:57 29° 205° (SSW) 1,227 8.7 0.2°
Drops below altitude 10° 18:00:09 10° 145° (SE) 2,078 9.3 -0.6°
Sets 18:02:45 0° 133° (SE) 2,968 10.0 -1.1°
